IRIDIUM 21 [P]

Last updated on Fri May 25 2018 00:19:53 GMT+0000 (Coordinated Universal Time)

1 25778U 99032B 18144.44594513 .15447225 -16899-5 20154-3 0 9999 2 25778 86.3734 79.2426 0032893 109.9165 250.5695 16.46222338997293

Satellite not in orbit